TimeEDT,TemperatureF,Dew PointF,Humidity,Sea Level PressureIn,VisibilityMPH,Wind Direction,Wind SpeedMPH,Gust SpeedMPH,PrecipitationIn,Events,Conditions,WindDirDegrees,DateUTC
12:53 AM,39.9,37.9,93,30.01,10.0,SW,5.8,-,N/A,,Scattered Clouds,220,2012-10-06 04:53:00
1:53 AM,41.0,37.9,89,30.00,10.0,SW,6.9,-,N/A,,Mostly Cloudy,230,2012-10-06 05:53:00
2:53 AM,41.0,37.0,86,30.00,10.0,SW,5.8,-,N/A,,Overcast,220,2012-10-06 06:53:00
3:53 AM,39.0,36.0,89,29.99,10.0,SW,5.8,-,N/A,,Partly Cloudy,220,2012-10-06 07:53:00
4:53 AM,37.9,35.1,89,29.99,10.0,SW,5.8,-,N/A,,Mostly Cloudy,220,2012-10-06 08:53:00
5:53 AM,37.0,34.0,89,30.00,10.0,WSW,5.8,-,N/A,,Clear,240,2012-10-06 09:53:00
6:53 AM,42.1,35.1,76,30.02,10.0,WNW,9.2,-,N/A,,Mostly Cloudy,290,2012-10-06 10:53:00
7:53 AM,43.0,33.1,68,30.03,10.0,WNW,8.1,-,N/A,,Overcast,290,2012-10-06 11:53:00
8:53 AM,44.1,33.1,65,30.06,10.0,West,8.1,-,N/A,,Overcast,270,2012-10-06 12:53:00
9:53 AM,45.0,32.0,60,30.06,10.0,West,11.5,-,N/A,,Overcast,280,2012-10-06 13:53:00
10:53 AM,45.0,33.1,63,30.08,10.0,West,11.5,-,N/A,,Overcast,270,2012-10-06 14:53:00
11:53 AM,46.0,34.0,63,30.09,10.0,WNW,9.2,-,N/A,,Overcast,290,2012-10-06 15:53:00
12:53 PM,46.0,35.1,66,30.09,10.0,NW,11.5,-,0.00,,Overcast,320,2012-10-06 16:53:00
1:53 PM,45.0,35.1,68,30.10,10.0,WNW,13.8,19.6,0.00,,Overcast,300,2012-10-06 17:53:00
2:53 PM,44.1,37.9,79,30.11,9.0,West,10.4,-,0.00,Rain,Light Rain,260,2012-10-06 18:53:00
3:53 PM,45.0,37.0,74,30.11,10.0,West,12.7,-,0.00,,Overcast,260,2012-10-06 19:53:00
4:24 PM,46.4,37.4,71,30.09,10.0,West,8.1,-,N/A,,Overcast,270,2012-10-06 20:24:00
4:53 PM,45.0,37.9,76,30.11,9.0,WNW,6.9,-,0.00,Rain,Light Rain,290,2012-10-06 20:53:00
5:00 PM,44.6,37.4,76,30.09,10.0,WNW,8.1,-,0.00,,Overcast,300,2012-10-06 21:00:00
5:39 PM,44.6,39.2,81,30.09,10.0,West,5.8,-,0.00,Rain,Light Rain,280,2012-10-06 21:39:00
5:53 PM,44.1,39.0,82,30.12,10.0,West,5.8,-,0.00,,Overcast,260,2012-10-06 21:53:00
6:53 PM,43.0,39.0,86,30.14,10.0,WSW,4.6,-,0.00,,Overcast,240,2012-10-06 22:53:00
7:53 PM,43.0,39.9,89,30.14,10.0,SW,3.5,-,0.00,,Overcast,220,2012-10-06 23:53:00
8:53 PM,43.0,39.0,86,30.15,10.0,SW,3.5,-,N/A,,Overcast,230,2012-10-07 00:53:00
9:53 PM,43.0,39.0,86,30.15,10.0,SW,3.5,-,N/A,,Overcast,220,2012-10-07 01:53:00
10:53 PM,43.0,39.9,89,30.16,10.0,WSW,4.6,-,N/A,,Overcast,250,2012-10-07 02:53:00
11:53 PM,43.0,39.0,86,30.16,10.0,WSW,3.5,-,N/A,,Overcast,240,2012-10-07 03:53:00